Regional Weather Roundup
Issued by NWS

Home | Current Version | Previous Version | Graphics & Text | Print | Product List | Glossary On
Versions: 1 2 3 4 5 6 7 8 9 10 11 12 13 14 15 16 17 18 19 20 21 22 23 24 25 26 27 28 29 30 31 32 33 34 35 36 37 38 39 40 41 42 43 44 45 46 47 48 49 50
000
ASUS44 KMEG 040500
RWRTN
TENNESSEE HOURLY STATE WEATHER ROUNDUP
NATIONAL WEATHER SERVICE MEMPHIS TN
1200 AM CDT SAT JUL 04 2015

TNZ002-004-019-021-049-052-054-088>092-040600-
WEST TENNESSEE

CITY           SKY/WX    TMP DP  RH WIND       PRES   REMARKS
MEMPHIS INTL   CLOUDY    73  70  90 SW3       29.93F
NWS MEMPHIS      N/A     72 N/A N/A MISG        N/A
JACKSON        LGT RAIN  73  70  90 SW9       29.93S
DYERSBURG        N/A    N/A N/A N/A MISG        N/A
PARIS          PTCLDY    66  66 100 CALM      29.93F
LEXINGTON      CLOUDY    72  70  94 CALM      29.92F
$$

TNZ008-025-027-028-033-062-065-066-040600-
NORTH MIDDLE TENNESSEE

CITY           SKY/WX    TMP DP  RH WIND       PRES   REMARKS
NASHVILLE      MOCLDY    72  70  93 SW3       29.93F
CLARKSVILLE    MOCLDY    71  69  93 SW5       29.93R
COOKEVILLE     PTCLDY    70  68  94 CALM      29.96F
CROSSVILLE     CLOUDY    68  64  87 VRB3      30.01F
$$

TNZ061-075-076-078-094-096-097-040600-
SOUTH MIDDLE TENNESSEE

CITY           SKY/WX    TMP DP  RH WIND       PRES   REMARKS
FAYETTEVILLE   MOCLDY    68  66  94 S3        29.98F
TULLAHOMA      CLOUDY    68  66  94 S7        29.99F
WINCHESTER     CLOUDY    70  68  94 SW3       30.00R
SHELBYVILLE    CLOUDY    72  72 100 SW5         N/A
$$

TNZ017-018-042-046-047-040600-
NORTHEAST TENNESSEE

CITY           SKY/WX    TMP DP  RH WIND       PRES   REMARKS
TRI CITIES     CLOUDY    71  67  87 SW9       29.97S
ELIZABETHTON   CLOUDY    70  63  78 W5        29.98R
$$

TNZ012-013-036-069-073-074-040600-
CENTRAL EAST TENNESSEE

CITY           SKY/WX    TMP DP  RH WIND       PRES   REMARKS
KNOXVILLE      CLOUDY    71  65  81 SW14      29.97S
OAK RIDGE      CLOUDY    71  66  84 CALM      29.98F
GATLINBURG     CLOUDY    70  63  78 SW13      29.98S
$$

TNZ083-085-099-040600-
SOUTHEAST TENNESSEE

CITY           SKY/WX    TMP DP  RH WIND       PRES   REMARKS
CHATTANOOGA    MOCLDY    70  68  93 S3        29.99F
$$

SKY/WX REPORTED AS FAIR MEANS FEW OR NO CLOUDS BELOW
12 THOUSAND FEET.




USA.gov is the U.S. government's official web portal to all federal, state and local government web resources and services.